Location: Sungai Bunut
(2.6333°N, 113.7333°E)
Time: 15:13:20
(UTC+00:00)

Transit 2A Rocket - All Passes

Search period start: 03 December 2023 00:00
Search period end: 13 December 2023 00:00
Orbit: 593 x 903 km, 66.7° (Epoch: 02 December)

Date Brightness Start Highest point End Pass type
(mag) Time Alt. Az. Time Alt. Az. Time Alt. Az.
03 Dec - 00:21:59 10° NNW 00:26:44 76° ENE 00:31:56 10° SSE daylight
03 Dec - 11:15:08 10° SE 11:16:27 11° ESE 11:17:44 10° E visible
03 Dec - 12:53:40 10° SW 12:58:52 46° WNW 13:03:37 10° N visible
03 Dec - 23:38:57 10° N 23:43:12 32° ENE 23:47:47 10° SE daylight
04 Dec - 01:22:58 10° W 01:25:31 14° WSW 01:28:11 10° SW daylight
04 Dec - 12:09:49 10° SSW 12:15:18 79° ESE 12:20:17 10° NNE visible
04 Dec - 22:57:06 10° NE 22:59:40 14° ENE 23:02:21 10° ESE daylight
05 Dec - 00:37:33 10° NW 00:41:49 31° WSW 00:46:25 10° S daylight
05 Dec - 11:26:41 10° S 11:31:40 35° ESE 11:36:15 10° NE visible
05 Dec - 13:11:12 10° WSW 13:13:48 14° WNW 13:16:20 10° NW visible
05 Dec - 23:53:24 10° NNW 23:58:10 71° WSW 00:03:25 10° SSE daylight
06 Dec - 10:44:36 10° SSE 10:47:58 17° ESE 10:51:10 10° ENE visible
06 Dec - 12:25:36 10° SW 12:30:17 30° WNW 12:34:37 10° N visible
06 Dec - 23:09:59 10° N 23:14:36 50° ENE 23:19:39 10° SE daylight
07 Dec - 11:41:20 10° SSW 11:46:44 69° WNW 11:51:39 10° NNE visible
07 Dec - 22:27:21 10° NNE 22:31:04 22° ENE 22:35:01 10° ESE daylight
08 Dec - 00:09:38 10° WNW 00:13:18 21° WSW 00:17:13 10° SSW daylight
08 Dec - 10:57:49 10° S 11:03:08 53° ESE 11:07:58 10° NE visible
08 Dec - 23:24:58 10° NW 23:29:36 46° WSW 23:34:41 10° S daylight
09 Dec - 10:15:07 10° SSE 10:19:27 24° ESE 10:23:30 10° ENE daylight
09 Dec - 11:57:50 10° WSW 12:01:40 20° WNW 12:05:17 10° NNW visible
09 Dec - 22:41:12 10° NNW 22:45:59 78° ENE 22:51:18 10° SSE daylight
10 Dec - 09:34:26 10° SE 09:35:43 11° ESE 09:36:59 10° E daylight
10 Dec - 11:13:01 10° SW 11:18:08 45° WNW 11:22:48 10° N visible
10 Dec - 21:58:06 10° N 22:02:26 33° ENE 22:07:08 10° SE visible
10 Dec - 23:42:12 10° W 23:44:46 14° WSW 23:47:28 10° SW daylight
11 Dec - 10:29:08 10° SSW 10:34:33 81° ESE 10:39:28 10° NNE visible
11 Dec - 21:16:08 10° NE 21:18:54 15° ENE 21:21:47 10° ESE visible
11 Dec - 22:56:45 10° NW 23:01:03 31° WSW 23:05:43 10° S daylight
12 Dec - 09:45:59 10° S 09:50:54 36° ESE 09:55:26 10° NE daylight
12 Dec - 11:30:40 10° W 11:33:02 13° WNW 11:35:20 10° NW visible
12 Dec - 22:12:33 10° NNW 22:17:23 70° WSW 22:22:43 10° SSE daylight
